Simultaneous Nadir Overpasses (SNOs) Predictions

Prediction of SNOs between NOAA-19 and NPP Satellite Orbit:

Table of predicted SNOs for the next 14.0 days since TLE Epoch: 6/12/2016
Index Date (NOAA-19) Time (NOAA-19) Lat,Lon (NOAA-19) SZA (NOAA-19 ) Date (NPP) Time (NPP) Lat,Lon (NPP) SZA (NPP ) Distance(km) Time Diff (sec)
1 06/20/2016 02:48:10 -80.99, -95.32 118.58 06/20/2016 02:49:24 -81.00, -95.21 118.63 2.10 74
2 06/20/2016 03:39:15 80.99, 72.09 61.40 06/20/2016 03:40:09 80.99, 72.12 61.37 0.55 54
3 06/20/2016 04:30:11 -80.99,-120.44 118.63 06/20/2016 04:30:54 -81.00,-120.62 118.62 3.21 43
4 06/20/2016 05:21:17 80.99, 46.60 61.40 06/20/2016 05:21:39 81.00, 46.70 61.38 1.78 22
5 06/20/2016 06:12:13 -80.99,-145.93 118.63 06/20/2016 06:12:24 -81.00,-146.04 118.62 1.96 11
6 06/20/2016 07:03:19 80.99, 21.12 61.40 06/20/2016 07:03:09 81.00, 21.29 61.39 3.01 10
7 06/20/2016 07:54:15 -80.99,-171.42 118.63 06/20/2016 07:53:54 -81.00,-171.45 118.61 0.87 21
8 06/20/2016 08:45:20 81.00, -3.99 61.35 06/20/2016 08:44:39 81.00, -4.13 61.39 2.42 41
9 06/20/2016 09:36:17 -81.00, 163.09 118.63 06/20/2016 09:35:24 -81.00, 163.13 118.60 1.06 53




NCC Satellite Simultaneous Nadir Overpasses (SNOs) Prediction Service
